Orbital Elements at Epoch 2459000.5 (2020-May-31.0) TDB
Reference: JPL 25 (heliocentric ecliptic J2000)
Element | Value | Uncertainty (1-sigma) | Units |
e | .1818375988606568 | 3.5982e-08 | |
a | 2.571482230027044 | 1.7282e-08 | au |
q | 2.103890075806079 | 8.8028e-08 | au |
i | 4.853709986356681 | 3.1946e-06 | deg |
node | 124.5532868705774 | 7.1036e-05 | deg |
peri | 199.4223229647714 | 7.2819e-05 | deg |
M | 93.1533638242674 | 1.6532e-05 | deg |
tp | 2458610.764685604509 (2019-May-07.26468560) | 6.9248e-05 | TDB |
period | 1506.169046638612 4.12 | 1.5183e-05 4.157e-08 | d yr |
n | .239016995338889 | 2.4095e-09 | deg/d |
Q | 3.039074384248009 | 2.0424e-08 | au |
|
| | Orbit Determination Parameters
Additional Information
|